Showing default

EYESAT A, 22825

Orbit data source: Space-Track

EYESAT A, 22825 is a payload satellite owned by Interfer (US) in SSO that was launched on Sun, 26 Sep 1993 UTC via an ARIANE 40 launch vehicle from the French Guiana (FRGUI). Payload-class satellites include a variety of spacecraft equipped with specific instruments for various scientific and technological missions. These include communications satellites like Starlink; space stations such as the ISS; scientific satellites like the Hubble; Earth observation satellites from companies like Planet Labs, Umbra, and HawkEye 360; GPS; miniature CubeSats for education and research; and military/defense satellites.

Loading next visibility...
Identifier
22825, 1993-061C
Orbit
SSO
Country
Flag of USUS
Related business
Manufacturer
Interfer
Mission
Partially operational Commercial Communications
Bus & Motor
MICROSAT, Unknown motor
Mass
12 kg wet, 12 kg dry
Launch date (UTC)
1993-09-26 (32 years ago)
Launch vehicle
ARIANE 40
Launch site
French Guiana (FRGUI)
Object type
Payload
Rocket body
Debris
Shape & HBR
Box, 0.1 m
Radar Cross Section
0.135 m², Medium (>0.1 m² and < 1m²)

Expand to show TLE details & history
Last TLE update: 11 hours ago

TLE from 11 hours ago
0 EYESAT A
1 22825U 93061C   25258.11991375  .00000067  00000-0  42577-4 0  9998
2 22825  98.7274 320.1196 0008406 179.7374 180.3814 14.30828500667663
Epoch: 2025-09-15T02:52Z
TLE epoch observation values (Epoch: 2025-09-15T02:52:40.547Z)
Latitude
-0.00008°
Longitude
-77.37847°
Altitude
797.917 km
Speed
7.451 km/s
True Right ascension
21h 20m 28s
True Declination
0° 00' 00"
Sunlit
Object was in full shadow at epoch
Visualization orbit readout
Latitude
Unknown
Longitude
Unknown
Altitude
Unknown
Speed
Unknown
Apparent Right ascension
Unknown
Apparent Declination
Unknown
Sunlit
N/A
Visualization observer readout
Local Sidereal Time
06:51:14
Azimuth
Unknown
Elevation
Unknown
Doppler factor
Unknown
Orbital elements
Apogee altitude
792.13 km
Perigee altitude
780.086 km
Semi-major axis
7,164.245 km
Eccentricity
0.00084
Inclination
98.7274°
RAAN
320.1196°
Arg. of periapsis
179.7374°
True anomaly
180.38076°
Mean anomaly
180.3814°
Eccentric anomaly
180.38108°
Mean motion
3.57921 °/min
Orbital period
100.58 mins
BSTAR
0.000042577
Loading maneuver chart data...
Computing Atmospheric mass density...
Loading historical data...
Loading historical data...
Loading historical data...
Loading historical data...
Loading historical data...
Loading historical data...
Loading historical data...

Documentation

Showing up to 5 results
|